CE3MXM-13 Weather Reports


Display with metric or nautical units.
time (UTC)temp
F
wind
direction
speed
MPH
gust
MPH
rain 1hr
in
rain 24hr
in
rain mn
in
humidity
%
barometer
mb
20260507124558 47 201 6.0 8.0 0.00 0.00 0.00 99 1019.9
20260507124058 47 190 9.0 14.0 0.00 0.00 0.00 99 1019.9
20260507123557 47 151 6.0 11.0 0.00 0.00 0.00 99 1019.8
20260507123058 47 105 0.0 0.0 0.00 0.00 0.00 99 1019.6
20260507122557 47 155 0.0 2.0 0.00 0.00 0.00 99 1019.9
20260507122057 47 116 0.0 0.0 0.00 0.00 0.00 99 1019.6
20260507121557 47 95 0.0 0.0 0.00 0.00 0.00 99 1019.8
20260507121057 47 91 0.0 0.0 0.00 0.00 0.00 99 1019.8
20260507120557 47 114 0.0 0.0 0.00 0.00 0.00 99 1019.8
20260507120057 47 115 0.0 0.0 0.00 0.00 0.00 99 1019.7
20260507115557 47 115 0.0 0.0 0.00 0.00 0.00 99 1019.6
20260507115057 47 115 0.0 0.0 0.00 0.00 0.00 99 1019.6
20260507114556 47 114 0.0 0.0 0.00 0.00 0.00 99 1019.6
20260507114056 47 115 0.0 0.0 0.00 0.00 0.00 99 1019.4
20260507113556 47 114 0.0 0.0 0.00 0.00 0.00 99 1019.7
20260507113056 47 114 0.0 0.0 0.00 0.00 0.00 99 1019.4
20260507112556 47 114 0.0 0.0 0.00 0.00 0.00 99 1019.4
20260507112056 47 114 0.0 0.0 0.00 0.00 0.00 99 1019.4
20260507111556 47 114 0.0 0.0 0.00 0.00 0.00 99 1019.4
20260507111056 47 114 0.0 0.0 0.00 0.00 0.00 99 1019.4
20260507110556 47 113 0.0 0.0 0.00 0.00 0.00 99 1019.5
20260507110056 47 115 0.0 0.0 0.00 0.00 0.00 99 1019.3
20260507105556 47 104 0.0 0.0 0.00 0.00 0.00 99 1019.2
20260507105056 47 102 0.0 0.0 0.00 0.00 0.00 99 1019.2
20260507104555 47 102 0.0 0.0 0.00 0.00 0.00 99 1018.9
20260507104055 47 103 0.0 0.0 0.00 0.00 0.00 99 1019.1
20260507103555 47 103 0.0 0.0 0.00 0.00 0.00 99 1019.1
20260507103055 47 103 0.0 0.0 0.00 0.00 0.00 99 1018.8
20260507102555 47 102 0.0 0.0 0.00 0.00 0.00 99 1018.7
20260507102055 47 103 0.0 0.0 0.00 0.00 0.00 99 1018.7
20260507101555 47 103 0.0 0.0 0.00 0.00 0.00 99 1018.5
20260507101055 47 97 0.0 0.0 0.00 0.00 0.00 99 1018.9
20260507100555 47 97 0.0 0.0 0.00 0.00 0.00 99 1018.5
20260507100054 47 97 0.0 0.0 0.00 0.00 0.00 99 1018.7
20260507095554 47 97 0.0 0.0 0.00 0.00 0.00 99 1018.8
20260507095054 47 98 0.0 0.0 0.00 0.00 0.00 99 1018.7
20260507094554 47 97 0.0 0.0 0.00 0.00 0.00 99 1018.4
20260507094054 47 112 0.0 0.0 0.00 0.00 0.00 99 1018.3
20260507093554 47 116 0.0 0.0 0.00 0.00 0.00 99 1017.9
20260507093054 48 107 0.0 0.0 0.00 0.00 0.00 99 1018.4
20260507092554 48 108 0.0 0.0 0.00 0.00 0.00 99 1018.4
20260507092054 48 108 0.0 0.0 0.00 0.00 0.00 99 1018.3
20260507091554 49 107 0.0 0.0 0.00 0.00 0.00 99 1018.3
20260507091053 49 106 0.0 0.0 0.00 0.00 0.00 99 1018.0
20260507090554 49 106 0.0 0.0 0.00 0.00 0.00 99 1018.1
20260507090053 49 106 0.0 0.0 0.00 0.00 0.00 99 1018.1
20260507085553 49 104 2.0 2.0 0.00 0.00 0.00 99 1018.1
20260507085053 49 106 0.0 0.0 0.00 0.00 0.00 99 1017.9
20260507084553 49 105 0.0 0.0 0.00 0.00 0.00 99 1017.9
20260507084053 49 106 0.0 0.0 0.00 0.00 0.00 99 1018.0
20260507083553 49 115 0.0 0.0 0.00 0.00 0.00 99 1018.1
20260507083053 49 110 0.0 0.0 0.00 0.00 0.00 99 1017.8
20260507082553 49 143 0.0 0.0 0.00 0.00 0.00 99 1017.7
20260507082053 49 145 0.0 0.0 0.00 0.00 0.00 99 1017.8
20260507081553 49 131 0.0 0.0 0.00 0.00 0.00 99 1018.0
20260507081052 49 167 0.0 2.0 0.00 0.00 0.00 99 1018.0
20260507080552 49 170 0.0 0.0 0.00 0.00 0.00 99 1017.9
20260507080052 49 146 0.0 0.0 0.00 0.00 0.00 99 1017.8
20260507075552 49 130 1.0 2.0 0.00 0.00 0.00 99 1017.8
20260507075052 49 132 1.0 2.0 0.00 0.00 0.00 99 1017.8
20260507074552 49 145 1.0 2.0 0.00 0.00 0.00 99 1017.8
20260507074052 49 115 0.0 2.0 0.00 0.00 0.00 99 1017.9
20260507073552 49 184 0.0 0.0 0.00 0.00 0.00 99 1017.8
20260507073052 49 150 0.0 0.0 0.00 0.00 0.00 99 1017.9
20260507072551 49 166 0.0 0.0 0.00 0.00 0.00 99 1017.9
20260507072051 49 148 0.0 0.0 0.00 0.00 0.00 99 1017.9
20260507071551 49 133 0.0 0.0 0.00 0.00 0.00 99 1018.1
20260507071052 49 132 0.0 0.0 0.00 0.00 0.00 99 1018.0
20260507070551 49 138 0.0 0.0 0.00 0.00 0.00 99 1017.8
20260507070051 49 130 0.0 0.0 0.00 0.00 0.00 99 1017.9
20260507065051 49 142 0.0 0.0 0.00 0.00 0.00 99 1017.8
20260507064551 49 151 0.0 0.0 0.00 0.00 0.00 99 1017.8
20260507064051 49 122 0.0 0.0 0.00 0.00 0.00 99 1017.9
20260507063551 49 128 5.0 8.0 0.00 0.00 0.00 99 1018.0
20260507063050 49 134 0.0 0.0 0.00 0.00 0.00 99 1017.9
20260507062550 49 133 0.0 0.0 0.00 0.00 0.00 99 1017.7
20260507062050 50 133 1.0 6.0 0.00 0.00 0.00 99 1017.6
20260507061550 50 128 0.0 0.0 0.00 0.00 0.00 99 1017.8
20260507061050 50 120 1.0 2.0 0.00 0.00 0.00 99 1018.0
20260507060550 50 103 0.0 0.0 0.00 0.00 0.00 99 1018.0
20260507060050 50 94 0.0 0.0 0.00 0.00 0.00 99 1017.9
20260507055550 50 94 0.0 0.0 0.00 0.00 0.00 99 1017.7
20260507055050 50 94 0.0 0.0 0.00 0.00 0.00 99 1017.5
20260507054550 50 93 0.0 0.0 0.00 0.00 0.00 99 1017.7
20260507054049 50 93 0.0 0.0 0.00 0.00 0.00 99 1017.5
20260507053549 50 93 0.0 0.0 0.00 0.00 0.00 99 1017.6
20260507053049 50 88 0.0 0.0 0.00 0.00 0.00 99 1017.7
20260507052549 50 79 0.0 0.0 0.00 0.00 0.00 99 1017.4
20260507052049 50 81 0.0 0.0 0.00 0.00 0.00 99 1017.7
20260507051549 50 80 0.0 0.0 0.00 0.00 0.00 99 1017.7
20260507051049 50 56 1.0 2.0 0.00 0.00 0.00 99 1017.6
20260507050549 50 136 2.0 2.0 0.00 0.00 0.00 99 1017.6
20260507050049 51 134 0.0 0.0 0.00 0.00 0.00 99 1017.7
20260507045549 51 133 0.0 0.0 0.00 0.00 0.00 99 1017.5
20260507045048 51 156 0.0 0.0 0.00 0.00 0.00 99 1017.5
20260507044548 51 122 0.0 0.0 0.00 0.00 0.00 99 1017.7
20260507044048 51 148 0.0 0.0 0.00 0.00 0.00 99 1017.5
20260507043548 51 150 0.0 0.0 0.00 0.00 0.00 99 1017.7
20260507043048 51 148 0.0 0.0 0.00 0.00 0.00 99 1017.7
20260507042548 51 151 0.0 0.0 0.00 0.00 0.00 99 1017.5
20260507042048 51 138 0.0 0.0 0.00 0.00 0.00 99 1017.6
20260507041548 51 117 0.0 0.0 0.00 0.00 0.00 99 1017.5
20260507041048 51 115 4.0 6.0 0.00 0.00 0.00 99 1017.5
20260507040548 51 117 0.0 0.0 0.00 0.00 0.00 99 1017.3
20260507040048 51 166 0.0 0.0 0.00 0.00 0.00 99 1017.6
20260507035547 52 272 0.0 0.0 0.00 0.00 0.00 99 1017.5
20260507035047 51 272 0.0 0.0 0.00 0.00 0.00 99 1017.6
20260507034547 51 273 0.0 0.0 0.00 0.00 0.00 99 1017.7
20260507034047 51 273 0.0 0.0 0.00 0.00 0.00 99 1017.5
20260507033547 51 273 0.0 0.0 0.00 0.00 0.00 99 1017.4
20260507033047 51 273 0.0 0.0 0.00 0.00 0.00 99 1017.2
20260507032547 51 270 0.0 0.0 0.00 0.00 0.00 99 1017.3
20260507032046 51 270 0.0 0.0 0.00 0.00 0.00 99 1017.4
20260507031547 51 270 0.0 0.0 0.00 0.00 0.00 99 1017.2
20260507031046 51 288 0.0 0.0 0.00 0.00 0.00 99 1017.5
20260507030546 51 288 0.0 0.0 0.00 0.00 0.00 99 1017.1
20260507030046 51 251 2.0 6.0 0.00 0.00 0.00 99 1017.1
20260507025546 51 356 0.0 0.0 0.00 0.00 0.00 99 1017.3
20260507025046 51 359 0.0 0.0 0.00 0.00 0.00 99 1017.0
20260507024546 51 354 0.0 0.0 0.00 0.00 0.00 99 1016.9
20260507024046 51 294 0.0 0.0 0.00 0.00 0.00 99 1017.2
20260507023546 52 16 0.0 0.0 0.00 0.00 0.00 99 1017.0
20260507023046 52 22 0.0 0.0 0.00 0.00 0.00 99 1016.8
20260507022546 52 319 0.0 0.0 0.00 0.00 0.00 99 1016.9
20260507022045 52 308 0.0 0.0 0.00 0.00 0.00 99 1017.1
20260507021545 52 326 0.0 0.0 0.00 0.00 0.00 99 1017.0
20260507021045 52 311 0.0 0.0 0.00 0.00 0.00 99 1016.8
20260507020545 52 311 0.0 0.0 0.00 0.00 0.00 99 1016.8
20260507020045 52 310 0.0 0.0 0.00 0.00 0.00 99 1016.6
20260507015545 52 9 0.0 0.0 0.00 0.00 0.00 99 1016.7
20260507015045 52 353 0.0 0.0 0.00 0.00 0.00 99 1016.5
20260507014545 52 343 0.0 0.0 0.00 0.00 0.00 99 1016.5
20260507014045 52 276 2.0 2.0 0.00 0.00 0.00 99 1016.6
20260507013545 52 342 0.0 0.0 0.00 0.00 0.00 99 1016.8
20260507013045 52 25 0.0 0.0 0.00 0.00 0.00 99 1016.5
20260507012544 52 14 0.0 0.0 0.00 0.00 0.00 99 1016.5
20260507012044 52 282 0.0 0.0 0.00 0.00 0.00 99 1016.7
20260507011544 52 10 0.0 0.0 0.00 0.00 0.00 99 1016.5
20260507011044 52 284 0.0 0.0 0.00 0.00 0.00 99 1016.6
20260507010544 52 301 0.0 0.0 0.00 0.00 0.00 99 1016.6
20260507010044 52 143 0.0 0.0 0.00 0.00 0.00 99 1016.6
20260507005544 52 194 2.0 2.0 0.00 0.00 0.00 99 1016.5
20260507005044 52 128 0.0 0.0 0.00 0.00 0.00 99 1016.8
20260507004543 52 123 0.0 0.0 0.00 0.00 0.00 99 1016.6
20260507004043 53 123 0.0 0.0 0.00 0.00 0.00 99 1016.8
20260507003543 53 29 0.0 2.0 0.00 0.00 0.00 99 1016.5
20260507003043 53 68 0.0 0.0 0.00 0.00 0.00 99 1016.4
20260507002543 53 157 0.0 0.0 0.00 0.00 0.00 99 1016.4
20260507002043 53 157 0.0 0.0 0.00 0.00 0.00 99 1016.3
20260507001543 53 157 0.0 0.0 0.00 0.00 0.00 99 1016.3
20260507001043 53 168 0.0 0.0 0.00 0.00 0.00 99 1016.4
20260507000543 53 167 2.0 6.0 0.00 0.00 0.00 99 1016.4
20260507000043 53 197 3.0 6.0 0.00 0.00 0.00 99 1016.4
20260506235543 53 131 0.0 0.0 0.00 0.00 0.00 99 1016.3
20260506235043 53 147 0.0 0.0 0.00 0.00 0.00 99 1016.2
20260506234543 53 73 0.0 0.0 0.00 0.00 0.00 99 1016.2
20260506234042 53 57 0.0 2.0 0.00 0.00 0.00 99 1016.0
20260506233542 53 94 0.0 0.0 0.00 0.00 0.00 99 1016.0
20260506233042 53 112 0.0 0.0 0.00 0.00 0.00 99 1016.1
20260506232542 53 115 0.0 0.0 0.00 0.00 0.00 99 1015.9
20260506232042 53 80 0.0 0.0 0.00 0.00 0.00 99 1015.8
20260506231542 53 71 0.0 0.0 0.00 0.00 0.00 99 1015.8
20260506231042 53 87 0.0 0.0 0.00 0.00 0.00 99 1015.7
20260506230542 54 91 0.0 0.0 0.00 0.00 0.00 99 1015.7
20260506230041 54 7 1.0 2.0 0.00 0.00 0.00 99 1015.7
20260506225541 54 103 0.0 0.0 0.00 0.00 0.00 99 1015.5
20260506225041 54 116 2.0 2.0 0.00 0.00 0.00 99 1015.6
20260506224541 54 85 0.0 0.0 0.00 0.00 0.00 99 1015.6
20260506224041 54 135 0.0 0.0 0.00 0.00 0.00 99 1015.4
20260506223541 54 87 0.0 0.0 0.00 0.00 0.00 99 1015.4
20260506223041 54 35 0.0 0.0 0.00 0.00 0.00 99 1015.2
20260506222541 54 290 1.0 2.0 0.00 0.00 0.00 99 1015.4
20260506222041 54 76 0.0 0.0 0.00 0.00 0.00 99 1015.2
20260506221540 54 349 2.0 2.0 0.00 0.00 0.00 99 1015.1
20260506221040 54 60 0.0 0.0 0.00 0.00 0.00 99 1015.1
20260506220540 54 81 0.0 2.0 0.00 0.00 0.00 99 1015.1
20260506220040 54 277 2.0 8.0 0.00 0.00 0.00 99 1014.8
20260506215540 54 264 0.0 0.0 0.00 0.00 0.00 99 1015.0
20260506215040 54 348 0.0 0.0 0.00 0.00 0.00 99 1014.9
20260506214540 55 245 3.0 8.0 0.00 0.00 0.00 99 1014.8
20260506214040 55 298 2.0 8.0 0.00 0.00 0.00 99 1014.7
20260506213540 55 266 0.0 0.0 0.00 0.00 0.00 99 1014.6
20260506213040 55 72 2.0 6.0 0.00 0.00 0.00 99 1014.5
20260506212539 55 202 0.0 0.0 0.00 0.00 0.00 99 1014.5
20260506212040 55 254 1.0 2.0 0.00 0.00 0.00 99 1014.7
20260506211539 55 42 2.0 6.0 0.00 0.00 0.00 99 1014.6
20260506211039 55 258 5.0 11.0 0.00 0.00 0.00 99 1014.6
20260506210539 55 359 0.0 0.0 0.00 0.00 0.00 99 1014.4
20260506210039 55 341 0.0 2.0 0.00 0.00 0.00 99 1014.5
20260506205539 55 335 0.0 0.0 0.00 0.00 0.00 99 1014.3
20260506205039 55 279 5.0 8.0 0.00 0.00 0.00 99 1014.5
20260506204539 55 281 3.0 6.0 0.00 0.00 0.00 99 1014.3
20260506204039 55 52 0.0 0.0 0.00 0.00 0.00 99 1014.4
20260506203539 55 11 0.0 2.0 0.00 0.00 0.00 99 1014.5
20260506203038 56 216 6.0 11.0 0.00 0.00 0.00 99 1014.4
20260506202538 56 334 0.0 2.0 0.00 0.00 0.00 99 1014.3
20260506202038 56 218 6.0 11.0 0.00 0.00 0.00 99 1014.2
20260506201538 56 78 0.0 0.0 0.00 0.00 0.00 99 1014.3
20260506201038 56 265 10.0 11.0 0.00 0.00 0.00 99 1014.3
20260506200538 57 152 2.0 6.0 0.00 0.00 0.00 99 1014.3
20260506200038 57 279 0.0 0.0 0.00 0.00 0.00 99 1014.3
20260506195538 57 322 0.0 2.0 0.00 0.00 0.00 99 1014.0
20260506195038 57 144 0.0 2.0 0.00 0.00 0.00 99 1014.0
20260506194538 57 86 0.0 2.0 0.00 0.00 0.00 99 1014.0
20260506194037 57 49 0.0 2.0 0.00 0.00 0.00 99 1014.2
20260506193538 57 3 2.0 6.0 0.00 0.00 0.00 99 1014.1
20260506193037 57 113 0.0 0.0 0.00 0.00 0.00 99 1014.1
20260506192537 57 148 0.0 0.0 0.00 0.00 0.00 99 1014.2
20260506192037 57 145 0.0 0.0 0.00 0.00 0.00 99 1014.3
20260506191537 57 145 0.0 0.0 0.00 0.00 0.00 99 1013.9
20260506191037 57 80 0.0 0.0 0.00 0.00 0.00 99 1014.1
20260506190537 57 80 0.0 0.0 0.00 0.00 0.00 99 1014.1
20260506190037 57 51 0.0 0.0 0.00 0.00 0.00 98 1014.0
20260506185537 57 336 1.0 2.0 0.00 0.00 0.00 98 1014.1
20260506185036 57 62 0.0 0.0 0.00 0.00 0.00 98 1014.2
20260506184537 57 290 0.0 0.0 0.00 0.00 0.00 98 1014.2
20260506184036 57 135 0.0 0.0 0.00 0.00 0.00 98 1014.2
20260506183536 58 201 0.0 0.0 0.00 0.00 0.00 98 1014.2
20260506183036 58 22 0.0 0.0 0.00 0.00 0.00 98 1014.0
20260506182536 58 299 2.0 6.0 0.00 0.00 0.00 98 1014.1
20260506182036 58 120 0.0 0.0 0.00 0.00 0.00 98 1014.1
20260506181536 59 288 0.0 0.0 0.00 0.00 0.00 99 1013.9
20260506181036 58 114 5.0 6.0 0.00 0.00 0.00 99 1013.8
20260506180536 57 285 2.0 6.0 0.00 0.00 0.00 99 1013.8
20260506180035 56 1 0.0 2.0 0.00 0.00 0.00 99 1014.1
20260506175535 56 165 2.0 2.0 0.00 0.00 0.00 98 1014.0
20260506175035 56 295 1.0 2.0 0.00 0.00 0.00 98 1014.1
20260506174536 56 316 4.0 11.0 0.00 0.00 0.00 98 1014.1
20260506174035 56 338 0.0 2.0 0.00 0.00 0.00 98 1014.0
20260506173535 56 110 0.0 0.0 0.00 0.00 0.00 98 1014.0
20260506173035 56 141 0.0 0.0 0.00 0.00 0.00 98 1014.0
20260506172535 56 121 0.0 0.0 0.00 0.00 0.00 98 1013.9
20260506172035 56 184 2.0 6.0 0.00 0.00 0.00 98 1013.9
20260506171535 56 142 0.0 2.0 0.00 0.00 0.00 98 1013.8
20260506171035 55 132 0.0 0.0 0.00 0.00 0.00 98 1013.8
20260506170535 55 130 0.0 0.0 0.00 0.00 0.00 98 1013.7
20260506170034 56 165 5.0 6.0 0.00 0.00 0.00 98 1013.6
20260506165534 56 89 0.0 0.0 0.00 0.00 0.00 98 1013.7
20260506165034 55 104 0.0 0.0 0.00 0.00 0.00 98 1013.4
20260506164534 56 92 0.0 0.0 0.00 0.00 0.00 98 1013.8
20260506164034 55 91 0.0 0.0 0.00 0.00 0.00 98 1013.7
20260506163534 55 60 0.0 0.0 0.00 0.00 0.00 98 1013.5
20260506163034 55 42 0.0 0.0 0.00 0.00 0.00 98 1013.5
20260506162534 55 113 0.0 0.0 0.00 0.00 0.00 98 1013.7
20260506162033 55 140 2.0 6.0 0.00 0.00 0.00 98 1013.3
20260506161533 55 142 0.0 0.0 0.00 0.00 0.00 98 1013.7
20260506161033 55 143 0.0 2.0 0.00 0.00 0.00 98 1013.3
20260506160533 55 175 11.0 14.0 0.00 0.00 0.00 97 1013.5
20260506160033 55 76 0.0 0.0 0.00 0.00 0.00 97 1013.5
20260506155533 55 231 7.0 14.0 0.00 0.00 0.00 97 1013.1
20260506155033 55 144 0.0 0.0 0.00 0.00 0.00 97 1013.3
20260506154533 55 155 2.0 6.0 0.00 0.00 0.00 95 1012.8
20260506154033 55 206 0.0 0.0 0.00 0.00 0.00 94 1013.2
20260506153533 56 137 0.0 0.0 0.00 0.00 0.00 94 1013.0
20260506153033 56 87 0.0 0.0 0.00 0.00 0.00 92 1013.1
20260506152532 57 131 0.0 0.0 0.00 0.00 0.00 90 1013.1
20260506152032 57 94 0.0 0.0 0.00 0.00 0.00 88 1013.0
20260506151532 58 156 0.0 0.0 0.00 0.00 0.00 87 1013.1
20260506151032 58 58 0.0 0.0 0.00 0.00 0.00 84 1012.7
20260506150532 58 15 0.0 0.0 0.00 0.00 0.00 83 1012.9
20260506150032 58 288 0.0 0.0 0.00 0.00 0.00 82 1013.0
20260506145532 58 132 1.0 2.0 0.00 0.00 0.00 82 1012.6
20260506145032 58 276 13.0 24.0 0.00 0.00 0.00 82 1012.6
20260506144532 59 200 5.0 8.0 0.00 0.00 0.00 81 1012.6
20260506144032 60 52 3.0 11.0 0.00 0.00 0.00 79 1012.6
20260506143031 59 143 0.0 0.0 0.00 0.00 0.00 91 1011.6
20260506142531 59 177 0.0 0.0 0.00 0.00 0.00 92 1011.4
20260506142031 58 205 0.0 0.0 0.00 0.00 0.00 93 1011.4
20260506141531 57 202 0.0 0.0 0.00 0.00 0.00 93 1011.3
20260506141031 57 217 0.0 0.0 0.00 0.00 0.00 94 1011.6
20260506140531 56 213 0.0 0.0 0.00 0.00 0.00 93 1011.6
20260506140032 56 226 0.0 0.0 0.00 0.00 0.00 94 1011.8
20260506135531 56 194 0.0 0.0 0.00 0.00 0.00 94 1012.0
20260506135030 56 9 0.0 2.0 0.00 0.00 0.00 95 1011.9
20260506134530 56 222 0.0 0.0 0.00 0.00 0.00 95 1012.1
20260506134030 56 314 0.0 0.0 0.00 0.00 0.00 96 1012.2
20260506133530 57 262 0.0 2.0 0.00 0.00 0.00 97 1012.1
20260506133030 57 205 0.0 2.0 0.00 0.00 0.00 98 1012.5
20260506132530 58 150 0.0 0.0 0.00 0.00 0.00 99 1012.3
20260506132030 56 206 0.0 0.0 0.00 0.00 0.00 99 1012.3
20260506131530 55 294 0.0 0.0 0.00 0.00 0.00 99 1012.2
20260506131030 54 271 0.0 0.0 0.00 0.00 0.00 99 1011.9
20260506130530 53 272 0.0 0.0 0.00 0.00 0.00 99 1012.0
20260506130029 53 45 0.0 0.0 0.00 0.00 0.00 99 1012.2
20260506125529 52 7 0.0 0.0 0.00 0.00 0.00 99 1012.1
20260506125029 50 94 0.0 0.0 0.00 0.00 0.00 99 1012.2